This is the latest recevied weather packets stored in our database for station/object N7IGG. If no packets are shown the sender has not sent any weather packets the latest 10 day(s).
| Time | Temp. | Humidity | Pressure | Rain* | Wind** | Luminosity | Snow |
|---|---|---|---|---|---|---|---|
| 1777754275 | 18.89° C | 73% | 1015.4 hPa | 0 mm | - | 651 W/m² | - |
| 1777753973 | 18.89° C | 73% | 1015.6 hPa | 0 mm | - | 624 W/m² | - |
| 1777753673 | 18.89° C | 73% | 1015.8 hPa | 0 mm | - | 597 W/m² | - |
| 1777753371 | 18.89° C | 73% | 1015.8 hPa | 0 mm | - | 613 W/m² | - |
| 1777753069 | 18.89° C | 74% | 1015.7 hPa | 0 mm | - | 597 W/m² | - |
| 1777752764 | 18.33° C | 74% | 1015.9 hPa | 0 mm | - | 577 W/m² | - |
| 1777752461 | 17.78° C | 74% | 1015.9 hPa | 0 mm | - | 574 W/m² | - |
| 1777752157 | 17.78° C | 74% | 1016 hPa | 0 mm | - | 617 W/m² | - |
| 1777751855 | 17.78° C | 75% | 1016.1 hPa | 0 mm | - | 640 W/m² | - |
| 1777751552 | 17.78° C | 75% | 1016.3 hPa | 0 mm | - | 621 W/m² | - |
| 1777751248 | 17.78° C | 76% | 1016.1 hPa | 0 mm | - | 647 W/m² | - |
| 1777750946 | 17.22° C | 77% | 1016.2 hPa | 0 mm | - | 137 W/m² | - |
| 1777750641 | 16.67° C | 78% | 1016.2 hPa | 0 mm | - | 635 W/m² | - |
| 1777750339 | 16.67° C | 78% | 1016.3 hPa | 0 mm | - | 630 W/m² | - |
| 1777750038 | 16.67° C | 78% | 1016.3 hPa | 0 mm | - | 569 W/m² | - |
| 1777749736 | 16.67° C | 78% | 1016.5 hPa | 0 mm | - | 630 W/m² | - |
| 1777749433 | 16.67° C | 79% | 1016.5 hPa | 0 mm | - | 609 W/m² | - |
| 1777749131 | 16.67° C | 79% | 1016.5 hPa | 0 mm | - | 564 W/m² | - |
| 1777748828 | 16.67° C | 79% | 1016.5 hPa | 0 mm | - | 635 W/m² | - |
| 1777748526 | 16.11° C | 79% | 1016.6 hPa | 0 mm | - | 582 W/m² | - |
| 1777748225 | 16.11° C | 80% | 1016.6 hPa | 0 mm | - | 582 W/m² | - |
| 1777747922 | 15.56° C | 80% | 1016.5 hPa | 0 mm | - | 603 W/m² | - |
| 1777747618 | 15.56° C | 81% | 1016.7 hPa | 0 mm | - | 560 W/m² | - |
| 1777747319 | 15.56° C | 81% | 1016.7 hPa | 0 mm | - | 250 W/m² | - |
| 1777747016 | 15.56° C | 82% | 1016.6 hPa | 0 mm | - | 299 W/m² | - |
* Rain latest hour (hover to see other rain measurements)
** Current wind speed in m/s (hover to see current wind gust speed)